Location: Astronomy Club of Akron Observatory
(40.9700°N, 81.5606°W)
Time: 00:20:47
(UTC-04:00)

ISS - Pass Details

Date: 13 July 2018
Orbit: 402 x 408 km, 51.6° (Epoch: 23 July)

Event Time Altitude Azimuth Distance (km) Brightness Sun altitude
Rises 05:16:33 0° 308° (NW) 2,335 -0.1 -8.5°
Reaches altitude 10° 05:19:21 10° 334° (NNW) 1,474 -0.8 -8.0°
Maximum altitude 05:21:17 15° 10° (N) 1,228 -0.7 -7.8°
Drops below altitude 10° 05:23:14 10° 46° (NE) 1,474 0.7 -7.5°
Sets 05:26:01 0° 72° (ENE) 2,334 1.7 -7.1°
